{"data":{"norad_id":53793,"epoch":"2026-05-25T02:17:26.550816Z","epoch_age_seconds":73758,"freshness":"FRESH","line1":"1 53793U 22111W   26145.09544619  .00002077  00000+0  14860-3 0  9997","line2":"2 53793  53.2147 290.9168 0001654  94.5001 265.6180 15.08827200205223","mean_motion":15.088272,"eccentricity":0.0001654,"inclination_deg":53.2147,"raan_deg":290.9168,"arg_perigee_deg":94.5001,"mean_anomaly_deg":265.618,"bstar":0.0001486,"rev_number":20522,"period_min":95.438364313687,"perigee_km":538.63828983241,"apogee_km":540.92673760754,"semimajor_km":6917.91951372,"source":"CELESTRAK","updated_at":"2026-05-25T13:38:17.544444Z"}}